Content
SEND FEEDBACK

Daily
Averages
Monthly
Summary
United States of America

AH FONT VILLAGE, HAWAII


Home > North America > United States > Hawaii
Elevation: 560 feet     Latitude: 20 50N     Longitude: 156 24W

WEATHER
 
SELECT A DAY
Number of Records: 217,158;   Date Range: 1/1/95 - 7/26/14
 
SHARE

PRINT THIS DATA

[ ← Previous Day ]
WEATHER ALMANAC - FEBRUARY 13, 2013
[ Next Day → ]
[ °C ]   °F
Weather ElementAverageHighLow
Temperature71 °F77 °F (11:54 am)64.9 °F (11:54 pm)
Dewpoint56.2 °F59 °F (9:54 am)53.1 °F (5:54 am)
Humidity59.8 %75 % (11:54 pm)48 % (11:54 am)
Barometer30.11 in30.15 in (9:54 am)30.04 in (3:54 pm)
Wind Speed11.6 mph23 mph (1:54 pm)
Wind Gust27.6 mph (2:54 pm)
Weather ElementAverage
Visibility10 mi
Wind DirectionNE (44.8 °)

Weather ElementTotal
Precipitation---
Cooling Degree Days6 (Base 65)
Growing Degree Days21 (Base 50)
Averaged from 23 records on February 13, 2013
WEATHER CONDITIONS BREAKOUT
WIND DIRECTION BREAKOUT
WEATHER BY HOUR - FEBRUARY 13, 2013
[ °C ]   °F
Local TimeTemperatureDewpointHumidityBarometerVisibilityWind DirectionWind SpeedGust SpeedPrecipitationEventsConditions
1:54 AM71.1 °F54.0 °F55 %30.14 in10.0 miNE (40°)12.7 mphOvercast
2:54 AM69.1 °F55.0 °F61 %30.12 in10.0 miENE (70°)5.8 mphOvercast
3:54 AM66.9 °F55.9 °F68 %30.11 in10.0 miNNE (30°)4.6 mphOvercast
4:54 AM68.0 °F54.0 °F61 %30.11 in10.0 miNE (40°)4.6 mphOvercast
5:54 AM68.0 °F53.1 °F59 %30.12 in10.0 miNE (40°)5.8 mphScattered Clouds
6:54 AM66.9 °F55.0 °F66 %30.12 in10.0 miNE (50°)4.6 mphScattered Clouds
7:54 AM70.0 °F57.0 °F63 %30.13 in10.0 miENE (60°)6.9 mphMostly Cloudy
8:54 AM73.0 °F53.1 °F49 %30.14 in10.0 miNE (50°)10.4 mphMostly Cloudy
9:54 AM72.0 °F59.0 °F64 %30.15 in10.0 miNE (40°)17.3 mph0.00 inMostly Cloudy
10:54 AM75.9 °F57.9 °F54 %30.15 in10.0 miNNE (30°)19.6 mph26.5 mphMostly Cloudy
11:54 AM77.0 °F55.9 °F48 %30.13 in10.0 miNE (40°)18.4 mphScattered Clouds
12:54 PM75.9 °F57.0 °F52 %30.10 in10.0 miNE (40°)16.1 mphMostly Cloudy
1:54 PM77.0 °F59.0 °F54 %30.07 in10.0 miNNE (30°)23.0 mphScattered Clouds
2:54 PM77.0 °F57.9 °F52 %30.05 in10.0 miNNE (30°)19.6 mph27.6 mphScattered Clouds
3:54 PM75.0 °F57.0 °F53 %30.04 in10.0 miNE (40°)20.7 mph26.5 mphPartly Cloudy
4:54 PM73.9 °F57.0 °F55 %30.04 in10.0 miNE (40°)17.3 mph26.5 mphScattered Clouds
5:54 PM72.0 °F55.9 °F57 %30.06 in10.0 miNE (50°)13.8 mph24.2 mphScattered Clouds
6:54 PM69.1 °F55.9 °F63 %30.07 in10.0 miENE (60°)11.5 mphScattered Clouds
7:54 PM66.9 °F55.0 °F66 %30.10 in10.0 miNE (50°)8.1 mphScattered Clouds
8:54 PM69.1 °F55.9 °F63 %30.11 in10.0 miNE (40°)9.2 mphScattered Clouds
9:54 PM69.1 °F57.0 °F65 %30.13 in10.0 miENE (70°)6.9 mphScattered Clouds
10:54 PM66.0 °F57.0 °F73 %30.13 in10.0 miNE (50°)5.8 mphPartly Cloudy
11:54 PM64.9 °F57.0 °F75 %30.12 in10.0 miNE (40°)3.5 mphMostly Cloudy
Hourly data recorded from PHOG, located miles away from Ah Font Village, Hawaii







STORIES FROM OUR PARTNERS